Tracking 19574 objects as of 16-Feb-2019
HD Live streaming from Space Station
objects crossing your sky now

EKRAN 6

Track EKRAN 6 now!
EKRAN 6 is classified as:


NORAD ID: 12120
Int'l Code: 1980-104A
Perigee: 35,758.3 km
Apogee: 35,849.1 km
Inclination: 12.2 °
Period: 1,436.6 minutes
Semi major axis: 42174 km
RCS: 6.3095 m2 (large)
Launch date: December 26, 1980
Source: Commonwealth of Independent States (former USSR) (CIS)
Launch site: TYURATAM MISSILE AND SPACE COMPLEX (TTMTR)
aabbcc
Your satellite tracking list
Your tracking list is empty




NASA's NSSDC Master Catalog

Two Line Element Set (TLE):
1 12120U 80104A   19045.88737355 -.00000237 +00000-0 +00000-0 0  9997
2 12120 012.1909 319.4738 0010765 000.4046 235.6817 01.00236325100542
Source of the keplerian elements: AFSPC